EA1M Weather Reports


Display with metric or nautical units.
time (UTC)temp
F
wind
direction
speed
MPH
gust
MPH
rain 1hr
in
rain 24hr
in
rain mn
in
humidity
%
barometer
mb
20260508050030 54 87 2.0 6.0 0.00 0.00 0.00 87 1008.7
20260508045054 54 71 1.0 2.0 0.00 0.00 0.00 87 1008.7
20260508044138 54 78 1.0 2.0 0.00 0.00 0.00 87 1008.7
20260508043038 54 87 2.0 3.0 0.00 0.00 0.00 86 1008.8
20260508042101 54 82 1.0 4.0 0.00 0.00 0.00 86 1008.7
20260508041042 54 113 2.0 3.0 0.00 0.00 0.00 86 1008.7
20260508040046 54 97 2.0 4.0 0.00 0.00 0.00 85 1008.7
20260508035129 54 89 2.0 4.0 0.00 0.00 0.00 85 1008.9
20260508034049 54 79 3.0 4.0 0.00 0.00 0.00 86 1008.9
20260508033053 53 82 2.0 4.0 0.00 0.00 0.00 87 1009.1
20260508032117 53 69 1.0 2.0 0.00 0.00 0.00 87 1009.1
20260508031037 54 96 2.0 3.0 0.00 0.00 0.00 86 1009.0
20260508025023 54 72 1.0 3.0 0.00 0.00 0.00 85 1009.0
20260508024046 54 85 2.0 4.0 0.00 0.00 0.00 86 1008.9
20260508023110 53 85 2.0 3.0 0.00 0.00 0.00 88 1008.9
20260508022030 53 62 1.0 2.0 0.00 0.00 0.00 89 1009.1
20260508021054 53 0.0 0.0 0.00 0.00 0.00 89 1009.1
20260508020137 53 0.0 0.0 0.00 0.00 0.00 89 1009.0
20260508015038 53 0.0 0.0 0.00 0.00 0.00 89 1009.3
20260508014102 53 67 1.0 2.0 0.00 0.00 0.00 90 1009.4
20260508013043 53 58 0.0 1.0 0.00 0.00 0.00 90 1009.5
20260508012046 53 74 1.0 2.0 0.00 0.00 0.00 90 1009.5
20260508011109 53 70 0.0 1.0 0.00 0.00 0.00 90 1009.5
20260508010030 53 82 1.0 2.0 0.00 0.00 0.00 90 1009.8
20260508005054 53 77 1.0 3.0 0.00 0.00 0.00 90 1009.8
20260508004118 53 119 2.0 4.0 0.00 0.00 0.00 90 1009.8
20260508003038 53 117 2.0 4.0 0.00 0.00 0.00 90 1009.9
20260508002101 53 113 2.0 4.0 0.00 0.00 0.00 91 1010.0
20260508001041 53 89 2.0 3.0 0.00 0.00 0.00 91 1010.0
20260508000046 53 97 2.0 4.0 0.00 0.00 0.00 91 1010.1
20260507235110 53 103 2.0 3.0 0.00 0.00 0.00 92 1010.0
20260507234030 53 99 2.0 2.0 0.00 0.00 0.00 91 1010.2
20260507233054 54 93 2.0 3.0 0.00 0.00 0.00 91 1010.3
20260507232118 54 78 1.0 2.0 0.00 0.00 0.00 91 1010.4
20260507231037 54 85 1.0 2.0 0.00 0.00 0.00 91 1010.4
20260507225042 55 75 1.0 2.0 0.00 0.00 0.00 90 1010.5
20260507224046 55 48 0.0 2.0 0.00 0.00 0.00 91 1010.6
20260507223110 55 70 2.0 4.0 0.00 0.00 0.00 90 1010.8
20260507222031 55 111 2.0 6.0 0.00 0.00 0.00 90 1010.9
20260507221054 55 106 3.0 4.0 0.00 0.00 0.00 90 1010.9
20260507220137 55 115 2.0 4.0 0.00 0.00 0.00 89 1010.8
20260507215058 56 109 2.0 3.0 0.00 0.00 0.00 89 1010.9
20260507214102 56 97 2.0 3.0 0.00 0.00 0.00 88 1011.0
20260507213022 56 112 2.0 3.0 0.00 0.00 0.00 88 1010.9
20260507212046 56 87 1.0 3.0 0.00 0.00 0.00 87 1010.7
20260507211111 57 82 1.0 2.0 0.00 0.00 0.00 86 1010.8
20260507210029 57 0.0 1.0 0.00 0.00 0.00 85 1010.6
20260507205053 57 0.0 0.0 0.00 0.00 0.00 85 1010.6
20260507204118 58 0.0 1.0 0.00 0.00 0.00 84 1010.5
20260507203037 58 0.0 0.0 0.00 0.00 0.00 83 1010.4
20260507202103 58 0.0 1.0 0.00 0.00 0.00 83 1010.4
20260507201021 58 53 1.0 2.0 0.00 0.00 0.00 83 1010.3
20260507200045 58 66 2.0 3.0 0.00 0.00 0.00 82 1010.2
20260507195110 59 13 1.0 2.0 0.00 0.00 0.00 81 1010.2
20260507194029 59 23 1.0 2.0 0.00 0.00 0.00 81 1010.2
20260507193053 59 24 1.0 2.0 0.00 0.00 0.00 80 1010.2
20260507192137 59 79 0.0 1.0 0.00 0.00 0.00 79 1010.3
20260507191057 59 30 1.0 2.0 0.00 0.00 0.00 79 1010.2
20260507190122 60 84 1.0 3.0 0.00 0.00 0.00 80 1010.2
20260507185042 60 16 1.0 2.0 0.00 0.00 0.00 80 1010.1
20260507184048 60 298 3.0 4.0 0.00 0.00 0.00 78 1010.1
20260507183110 61 38 2.0 4.0 0.00 0.00 0.00 76 1010.0
20260507182030 61 25 0.0 2.0 0.00 0.00 0.00 76 1010.2
20260507181054 61 37 1.0 3.0 0.00 0.00 0.00 75 1010.2
20260507180119 62 37 2.0 3.0 0.00 0.00 0.00 73 1010.0
20260507175038 61 16 1.0 3.0 0.00 0.00 0.00 74 1010.0
20260507174122 61 15 2.0 4.0 0.00 0.00 0.00 74 1010.0
20260507173022 61 357 2.0 6.0 0.00 0.00 0.00 75 1009.9
20260507172046 61 325 4.0 9.0 0.00 0.00 0.00 74 1009.8
20260507171111 62 22 2.0 6.0 0.00 0.00 0.00 74 1009.8
20260507170029 63 13 1.0 3.0 0.00 0.00 0.00 73 1010.1
20260507165115 63 33 2.0 4.0 0.00 0.00 0.00 72 1010.0
20260507164117 64 37 2.0 4.0 0.00 0.00 0.00 72 1010.3
20260507163038 64 31 1.0 4.0 0.00 0.00 0.00 70 1010.4
20260507162122 65 25 2.0 6.0 0.00 0.00 0.00 68 1010.4
20260507161021 63 29 2.0 4.0 0.00 0.00 0.00 68 1010.4
20260507160046 63 9 3.0 6.0 0.00 0.00 0.00 67 1010.5
20260507155109 64 354 2.0 4.0 0.00 0.00 0.00 63 1010.3
20260507154029 64 347 3.0 7.0 0.00 0.00 0.00 63 1010.4
20260507153134 63 344 4.0 8.0 0.00 0.00 0.00 63 1010.3
20260507152118 63 319 4.0 8.0 0.00 0.00 0.00 65 1010.3
20260507151059 63 356 3.0 10.0 0.00 0.00 0.00 67 1010.4
20260507145022 62 351 3.0 6.0 0.00 0.00 0.00 74 1010.6
20260507144046 62 358 3.0 7.0 0.00 0.00 0.00 75 1010.8
20260507143110 61 22 2.0 4.0 0.00 0.00 0.00 75 1011.3
20260507142030 61 27 1.0 4.0 0.00 0.00 0.00 73 1011.3
20260507141054 62 12 4.0 7.0 0.00 0.00 0.00 70 1011.2
20260507140118 62 15 3.0 6.0 0.00 0.00 0.00 72 1011.1
20260507135037 63 26 4.0 8.0 0.00 0.00 0.00 74 1011.2
20260507134102 64 85 5.0 10.0 0.00 0.00 0.00 72 1011.0
20260507133021 63 351 5.0 10.0 0.00 0.00 0.00 73 1011.1
20260507132106 62 23 4.0 10.0 0.00 0.00 0.00 75 1010.9
20260507131109 61 341 4.0 11.0 0.00 0.00 0.00 77 1011.0
20260507130049 61 349 4.0 11.0 0.00 0.00 0.00 76 1011.0
20260507125054 61 359 5.0 10.0 0.00 0.00 0.00 76 1011.1
20260507124117 62 358 5.0 11.0 0.00 0.00 0.00 74 1011.4
20260507123038 62 10 4.0 14.0 0.00 0.00 0.00 74 1011.5
20260507122101 63 14 7.0 13.0 0.00 0.00 0.00 73 1011.5
20260507121021 63 34 4.0 8.0 0.00 0.00 0.00 72 1011.7
20260507120107 63 355 6.0 10.0 0.00 0.00 0.00 72 1011.6
20260507115109 63 6 2.0 10.0 0.00 0.00 0.00 73 1011.7
20260507114050 63 9 5.0 13.0 0.00 0.00 0.00 73 1011.8
20260507113053 64 344 5.0 11.0 0.00 0.00 0.00 72 1011.7
20260507112137 63 79 4.0 7.0 0.00 0.00 0.00 74 1011.6
20260507111037 62 357 4.0 10.0 0.00 0.00 0.00 74 1011.6
20260507105021 63 16 5.0 10.0 0.00 0.00 0.00 72 1011.6
20260507104045 63 24 3.0 7.0 0.00 0.00 0.00 72 1011.7
20260507103129 62 358 3.0 7.0 0.00 0.00 0.00 72 1011.6
20260507102029 61 334 3.0 6.0 0.00 0.00 0.00 73 1011.6
20260507101053 59 314 4.0 9.0 0.00 0.00 0.00 76 1011.5
20260507100117 59 345 3.0 6.0 0.00 0.00 0.00 77 1011.5
20260507095037 60 14 3.0 6.0 0.00 0.00 0.00 76 1011.6
20260507094101 60 26 2.0 6.0 0.00 0.00 0.00 74 1011.6
20260507093021 60 31 1.0 4.0 0.00 0.00 0.00 75 1011.6
20260507092046 58 26 2.0 4.0 0.00 0.00 0.00 80 1011.6
20260507091109 56 23 2.0 3.0 0.00 0.00 0.00 85 1011.8
20260507090029 56 47 1.0 3.0 0.00 0.00 0.00 89 1011.8
20260507085113 54 104 1.0 3.0 0.00 0.00 0.00 91 1011.8
20260507084117 53 87 1.0 2.0 0.00 0.00 0.00 93 1011.9
20260507083048 52 140 3.0 4.0 0.00 0.00 0.00 95 1012.1
20260507082121 51 137 3.0 6.0 0.00 0.00 0.00 95 1012.0
20260507081021 51 110 2.0 4.0 0.00 0.00 0.00 96 1012.3
20260507080046 50 136 3.0 6.0 0.00 0.00 0.00 96 1012.3
20260507075130 49 59 3.0 6.0 0.00 0.00 0.00 96 1012.3
20260507074029 49 147 4.0 7.0 0.00 0.00 0.00 96 1012.3
20260507073053 49 122 4.0 7.0 0.00 0.00 0.00 96 1012.2
20260507072138 49 108 3.0 6.0 0.00 0.00 0.00 96 1012.2
20260507071037 48 112 3.0 6.0 0.00 0.01 0.00 96 1012.4
20260507065021 48 130 3.0 6.0 0.00 0.02 0.00 96 1012.4
20260507064044 48 149 3.0 6.0 0.00 0.02 0.00 96 1012.5
20260507063109 47 119 3.0 4.0 0.00 0.02 0.00 96 1012.4
20260507062030 47 142 4.0 6.0 0.00 0.02 0.00 96 1012.5
20260507061053 47 117 2.0 6.0 0.00 0.02 0.00 95 1012.6
20260507060116 47 110 3.0 6.0 0.00 0.02 0.00 95 1012.6
20260507055038 47 134 3.0 6.0 0.00 0.02 0.00 95 1012.6
20260507054102 47 113 3.0 4.0 0.00 0.02 0.00 95 1012.6
20260507053022 47 85 1.0 3.0 0.00 0.02 0.00 95 1012.4
20260507052046 47 108 3.0 4.0 0.00 0.02 0.00 95 1012.6
20260507051109 47 104 2.0 3.0 0.00 0.02 0.00 95 1012.5